Tiempo cada hora Cekob

Hoy, 23 Abril, Viernes

Tiempo Temperatura Precipitaciones Viento Presión Humedad
00:00 +7°C° 0.2 mm 2 mps 615 mmHg 93%
01:00 +7°C° 0.1 mm 2 mps 615 mmHg 93%
02:00 +7°C° 0.1 mm 2 mps 615 mmHg 92%
03:00 +6°C° 0 mm 2 mps 614 mmHg 94%
04:00 +6°C° 0.1 mm 2 mps 615 mmHg 94%
05:00 +6°C° 0.1 mm 2 mps 615 mmHg 94%
06:00 +5°C° 0.1 mm 2 mps 615 mmHg 93%
07:00 +4°C° 0.3 mm 3 mps 615 mmHg 93%
08:00 +4°C° 0.3 mm 3 mps 615 mmHg 92%
09:00 +4°C° 0 mm 3 mps 616 mmHg 93%
10:00 +5°C° 0.5 mm 3 mps 616 mmHg 89%
11:00 +5°C° 0.5 mm 3 mps 616 mmHg 86%
12:00 +5°C° 0.5 mm 3 mps 616 mmHg 83%
13:00 +7°C° 0 mm 3 mps 617 mmHg 77%
14:00 +7°C° 0 mm 3 mps 617 mmHg 70%
15:00 +8°C° 0 mm 2 mps 617 mmHg 64%
16:00 +7°C° 0 mm 2 mps 617 mmHg 65%
17:00 +7°C° 0 mm 2 mps 617 mmHg 66%
18:00 +8°C° 0 mm 1 mps 617 mmHg 66%
19:00 +7°C° 0 mm 1 mps 617 mmHg 67%
20:00 +5°C° 0 mm 2 mps 617 mmHg 69%
21:00 +4°C° 0 mm 2 mps 617 mmHg 70%
22:00 +2°C° 0 mm 3 mps 617 mmHg 68%
23:00 +2°C° 0 mm 3 mps 616 mmHg 67%

Mañana, 24 Abril, Sábado

Tiempo Temperatura Precipitaciones Viento Presión Humedad
00:00 +2°C° 0 mm 3 mps 616 mmHg 65%
01:00 +2°C° 0 mm 3 mps 616 mmHg 69%
02:00 +2°C° 0 mm 3 mps 615 mmHg 73%
03:00 +2°C° 0 mm 3 mps 615 mmHg 77%
04:00 +2°C° 0 mm 3 mps 615 mmHg 79%
05:00 +3°C° 0 mm 4 mps 615 mmHg 81%
06:00 +3°C° 0 mm 4 mps 615 mmHg 82%
07:00 +5°C° 0 mm 3 mps 615 mmHg 73%
08:00 +8°C° 0 mm 3 mps 615 mmHg 64%
09:00 +11°C° 0 mm 3 mps 616 mmHg 55%
10:00 +12°C° 0 mm 3 mps 616 mmHg 50%
11:00 +13°C° 0 mm 3 mps 616 mmHg 45%
12:00 +14°C° 0 mm 3 mps 616 mmHg 39%
13:00 +14°C° 0 mm 3 mps 616 mmHg 42%
14:00 +14°C° 0 mm 3 mps 616 mmHg 44%
15:00 +14°C° 0 mm 3 mps 616 mmHg 46%
16:00 +13°C° 0 mm 3 mps 616 mmHg 54%
17:00 +12°C° 0 mm 2 mps 616 mmHg 61%
18:00 +10°C° 0 mm 2 mps 616 mmHg 69%
19:00 +9°C° 0 mm 2 mps 616 mmHg 72%
20:00 +8°C° 0 mm 2 mps 616 mmHg 74%
21:00 +8°C° 0 mm 1 mps 616 mmHg 77%
22:00 +8°C° 0 mm 1 mps 616 mmHg 78%
23:00 +7°C° 0 mm 1 mps 616 mmHg 79%

Pasado mañana, 25 Abril, Domingo

Tiempo Temperatura Precipitaciones Viento Presión Humedad
00:00 +7°C° 0 mm 1 mps 616 mmHg 80%
01:00 +7°C° 0 mm 1 mps 616 mmHg 81%
02:00 +7°C° 0 mm 1 mps 616 mmHg 83%
03:00 +6°C° 0 mm 1 mps 616 mmHg 84%
04:00 +7°C° 0 mm 1 mps 616 mmHg 83%
05:00 +7°C° 0 mm 1 mps 616 mmHg 82%
06:00 +7°C° 0 mm 1 mps 616 mmHg 81%
07:00 +9°C° 0 mm 1 mps 616 mmHg 74%
08:00 +10°C° 0 mm 2 mps 616 mmHg 67%
09:00 +13°C° 0 mm 2 mps 617 mmHg 60%
10:00 +14°C° 0 mm 2 mps 617 mmHg 56%
11:00 +14°C° 0 mm 3 mps 617 mmHg 52%
12:00 +16°C° 0 mm 3 mps 617 mmHg 47%
13:00 +16°C° 0 mm 3 mps 617 mmHg 46%
14:00 +17°C° 0 mm 3 mps 617 mmHg 45%
15:00 +17°C° 0 mm 3 mps 617 mmHg 44%
16:00 +16°C° 0 mm 2 mps 616 mmHg 51%
17:00 +14°C° 0 mm 2 mps 616 mmHg 58%
18:00 +13°C° 0 mm 2 mps 615 mmHg 64%
19:00 +12°C° 0 mm 2 mps 615 mmHg 69%
20:00 +10°C° 0 mm 2 mps 615 mmHg 74%
21:00 +9°C° 0 mm 3 mps 614 mmHg 80%
22:00 +9°C° 0 mm 3 mps 614 mmHg 80%
23:00 +8°C° 0 mm 3 mps 614 mmHg 81%

26 Abril, Lunes

Tiempo Temperatura Precipitaciones Viento Presión Humedad
00:00 +7°C° 0 mm 4 mps 613 mmHg 82%
01:00 +7°C° 0 mm 4 mps 613 mmHg 82%
02:00 +7°C° 0 mm 4 mps 613 mmHg 81%
03:00 +7°C° 0 mm 4 mps 612 mmHg 81%
04:00 +7°C° 0 mm 4 mps 612 mmHg 80%
05:00 +8°C° 0 mm 3 mps 612 mmHg 78%
06:00 +9°C° 0 mm 3 mps 612 mmHg 77%
07:00 +11°C° 0 mm 3 mps 613 mmHg 67%
08:00 +14°C° 0 mm 3 mps 613 mmHg 58%
09:00 +17°C° 0 mm 3 mps 614 mmHg 48%
10:00 +18°C° 0 mm 3 mps 614 mmHg 43%
11:00 +20°C° 0 mm 3 mps 613 mmHg 38%
12:00 +21°C° 0 mm 3 mps 613 mmHg 33%
13:00 +21°C° 0 mm 3 mps 613 mmHg 33%
14:00 +21°C° 0 mm 3 mps 613 mmHg 32%
15:00 +21°C° 0 mm 3 mps 613 mmHg 31%
16:00 +19°C° 0 mm 3 mps 612 mmHg 42%
17:00 +17°C° 0 mm 3 mps 612 mmHg 53%
18:00 +15°C° 0 mm 2 mps 612 mmHg 64%
19:00 +14°C° 0 mm 2 mps 611 mmHg 68%
20:00 +13°C° 0 mm 2 mps 611 mmHg 72%
21:00 +10°C° 0 mm 2 mps 611 mmHg 76%
22:00 +10°C° 0 mm 2 mps 611 mmHg 80%
23:00 +9°C° 0 mm 2 mps 611 mmHg 84%

27 Abril, Martes

Tiempo Temperatura Precipitaciones Viento Presión Humedad
00:00 +8°C° 0 mm 2 mps 611 mmHg 88%
01:00 +8°C° 0.1 mm 2 mps 611 mmHg 89%
02:00 +8°C° 0.1 mm 2 mps 611 mmHg 90%
03:00 +8°C° 0.1 mm 2 mps 611 mmHg 91%
04:00 +9°C° 0.5 mm 1 mps 611 mmHg 92%
05:00 +9°C° 0.5 mm 1 mps 612 mmHg 92%
06:00 +9°C° 0.5 mm 1 mps 612 mmHg 93%
07:00 +9°C° 0.6 mm 1 mps 612 mmHg 92%
08:00 +8°C° 0.6 mm 2 mps 612 mmHg 90%
09:00 +8°C° 0.6 mm 2 mps 613 mmHg 89%
10:00 +8°C° 0.7 mm 2 mps 613 mmHg 89%
11:00 +8°C° 0.7 mm 2 mps 613 mmHg 88%
12:00 +9°C° 0.7 mm 2 mps 613 mmHg 88%
13:00 +8°C° 1.9 mm 2 mps 612 mmHg 90%
14:00 +7°C° 1.9 mm 2 mps 612 mmHg 92%
15:00 +8°C° 1.9 mm 1 mps 612 mmHg 93%
16:00 +8°C° 1.2 mm 1 mps 612 mmHg 94%
17:00 +8°C° 1.2 mm 1 mps 612 mmHg 94%
18:00 +8°C° 1.2 mm 1 mps 613 mmHg 94%
19:00 +8°C° 0.2 mm 1 mps 613 mmHg 94%
20:00 +8°C° 0.2 mm 1 mps 613 mmHg 95%
21:00 +7°C° 0.2 mm 1 mps 613 mmHg 95%
22:00 +7°C° 0 mm 1 mps 613 mmHg 95%
23:00 +7°C° 0 mm 1 mps 613 mmHg 95%

28 Abril, Miércoles

Tiempo Temperatura Precipitaciones Viento Presión Humedad
00:00 +7°C° 0 mm 1 mps 613 mmHg 95%
01:00 +7°C° 0 mm 1 mps 613 mmHg 95%
02:00 +6°C° 0 mm 1 mps 613 mmHg 95%
03:00 +6°C° 0 mm 1 mps 613 mmHg 95%
04:00 +6°C° 0 mm 1 mps 613 mmHg 95%
05:00 +6°C° 0 mm 1 mps 613 mmHg 94%
06:00 +5°C° 0 mm 2 mps 614 mmHg 94%
07:00 +6°C° 0 mm 2 mps 614 mmHg 90%
08:00 +7°C° 0 mm 2 mps 614 mmHg 86%
09:00 +8°C° 0 mm 2 mps 614 mmHg 83%
10:00 +9°C° 0 mm 2 mps 615 mmHg 77%
11:00 +10°C° 0 mm 2 mps 615 mmHg 72%
12:00 +11°C° 0 mm 3 mps 615 mmHg 66%
13:00 +11°C° 0 mm 3 mps 615 mmHg 66%
14:00 +11°C° 0 mm 3 mps 615 mmHg 65%
15:00 +11°C° 0 mm 3 mps 615 mmHg 65%
16:00 +10°C° 0 mm 2 mps 615 mmHg 68%
17:00 +9°C° 0 mm 2 mps 615 mmHg 71%
18:00 +9°C° 0 mm 2 mps 615 mmHg 74%
19:00 +8°C° 0 mm 2 mps 615 mmHg 78%
20:00 +8°C° 0 mm 1 mps 615 mmHg 83%
21:00 +7°C° 0 mm 1 mps 615 mmHg 87%
22:00 +7°C° 0 mm 1 mps 615 mmHg 85%
23:00 +6°C° 0 mm 2 mps 615 mmHg 84%
Mostrar más

Necesitamos Su Consentimiento

Meteoprog y nuestros Proveedores de Servicios pueden almacenar y acceder a sus datos personales como cookies, identificadores de dispositivo u otras tecnologías similares de su dispositivo y procesar dichos datos para personalizar contenido y anuncios, además de ofrecer funciones de redes sociales y analizar el tráfico.

  • Almacenar y/o acceder a información en su dispositivo

    Se puede almacenar o acceder a cookies, identificadores de dispositivo u otra información de su dispositivo para los fines anteriormente indicados.

  • Anuncios y contenido personalizados, medición de anuncios y contenido, percepciones del público, y desarrollo de productos

    Los anuncios y el contenido pueden personalizarse en base a su perfil. Se pueden añadir más datos para personalizar mejor los anuncios y contenidos. Se puede medir el rendimiento de los anuncios y contenidos. Se puede obtener la percepción sobre el público que ha visto los anuncios y contenidos. Dichos datos pueden usarse para desarrollar o mejorar la experiencia del usuario, sistemas y software.

Al hacer clic en ‘Estoy De Acuerdo’ usted permitirá el uso de las cookies, identificadores de dispositivo, balizas web u otras tecnologías similares indicadas. Su configuración puede cambiarse desde el navegador de su dispositivo.

Para ciertos fines, los intereses legítimos pueden ser considerados por encima del consentimiento. Puede leer más sobre ello en nuestra Política de Privacidad y Cookies.